User: anonymous   Login
Location: Haliburton Scout Reserve
(45.0900°N, 78.3200°W)
Time: 06:00:50
(UTC-04:00)
Language:

XW-2F - Orbit

View from above orbital plane
View from above orbital plane
View from above satellite
View from above satellite

Ground track
Ground track

The orbit data is extracted from the following two-line orbital elements,

1 40910U 15049M   22141.97481456  .00015427  00000-0  66577-3 0  9990
2 40910  97.4730 149.1620 0015196  72.2979 342.0719 15.22511490369157
Epoch (UTC): 21 May 2022 23:23:43
Eccentricity: 0.0015196
inclination: 97.4730°
perigee height: 488 km
apogee height: 509 km
right ascension of ascending node: 149.1620°
argument of perigee: 72.2979°
revolutions per day: 15.22511490
mean anomaly at epoch: 342.0719°
orbit number at epoch: 36915

The dashed part of the orbit path shows where the satellite is in the earth's shadow,  

DLR